sat.trackr.live / text

‹ back to catalog

STARLINK-35661

NORAD 66387 · 2025-257H

PAYLOAD ACTIVE UNKNOWN

§ Identity

Operator
Country
US
Launch date
2025-11-09
Launch site
AFETR
Launch vehicle
Mass (kg)
RCS (m²)

Purposes: comms

External: N2YO · Heavens-Above · Gunter

§ Orbital elements

Epoch: 2026-09-20T13:14:10.775904Z

Period
93.85 min
Inclination
53.1590°
Eccentricity
0.0001647
Mean motion
15.34426532 rev/d
Perigee alt
461.5 km
Apogee alt
463.8 km
Semi-major
6,840.8 km
B*
6.1598e-4
RAAN
27.2357°
Arg perigee
65.4978°
Mean anomaly
294.6196°
Rev number
4,963

§ Raw data

STARLINK-356611 66387U 25257H   26263.55151361  .00020510  00000+0  61598-3 0  99962 66387  53.1590  27.2357 0001647  65.4978 294.6196 15.34426532 49632

JSON: /api/v1/satellites/66387 · /tle

For live sub-satellite position, see the globe view (requires WebGL).

§ Visibility from observer

Set your observer location to see the next 7 days of passes ≥ 10°. The values pass through the URL so the page stays shareable.

No JS? Fill the form by hand. The geolocation button needs JavaScript.